Location: Nitra
(0.0000°N, 18.0833°E)
Time: 20:31:41
(UTC+02:00)

A-11 Canister half - Pass Details

Date: 06 April 2023
Orbit: 1526 x 1682 km, 47.3° (Epoch: 08 June)

Event Time Altitude Azimuth Distance (km) Brightness Sun altitude
Rises 01:20:02 0° 270° (W) 4,702 - -80.3°
Reaches altitude 10° 01:28:01 10° 228° (SW) 3,696 - -78.7°
Maximum altitude 01:28:38 10° 224° (SW) 3,689 - -78.6°
Drops below altitude 10° 01:29:14 10° 220° (SW) 3,694 - -78.4°
Sets 01:37:17 0° 178° (S) 4,678 - -76.7°
